CDT,Max TemperatureF,Mean TemperatureF,Min TemperatureF,Max Dew PointF,MeanDew PointF,Min DewpointF,Max Humidity, Mean Humidity, Min Humidity, Max Sea Level PressureIn, Mean Sea Level PressureIn, Min Sea Level PressureIn, Max VisibilityMiles, Mean VisibilityMiles, Min VisibilityMiles, Max Wind SpeedMPH, Mean Wind SpeedMPH, Max Gust SpeedMPH,PrecipitationIn, CloudCover, Events, WindDirDegrees
2013-4-1,75,64,51,62,55,47,94,79,44,30.07,29.97,29.88,10,6,0,12,5,18,0.00,3,Fog,304
2013-4-2,81,62,45,51,45,38,93,59,23,30.10,30.03,29.99,10,9,5,15,4,16,0.00,4,,177
2013-4-3,62,58,53,59,54,50,100,91,72,30.09,29.96,29.80,10,6,2,22,5,36,0.54,8,Rain-Thunderstorm,41
2013-4-4,73,65,57,63,60,57,100,93,66,29.95,29.88,29.81,10,6,0,14,3,,0.00,8,Fog,315
2013-4-5,66,58,51,56,51,47,100,86,58,30.07,29.99,29.88,10,8,3,13,9,21,0.00,5,Rain,333
2013-4-6,73,58,42,61,47,42,100,70,36,30.14,30.09,30.06,10,10,5,13,5,22,0.00,1,,184
2013-4-7,78,60,46,61,54,43,94,75,48,30.16,30.07,30.01,10,9,2,15,5,,0.00,3,,147
2013-4-8,82,68,55,62,56,53,94,78,39,30.07,30.03,29.98,10,5,0,17,4,24,0.00,4,Fog,128
2013-4-9,84,70,57,61,58,55,94,76,39,30.09,30.03,29.96,10,6,0,18,5,25,0.00,3,Fog,128
2013-4-10,84,70,57,63,59,53,90,69,42,30.02,29.96,29.88,10,10,7,22,8,29,0.00,4,Fog,146
2013-4-11,81,73,64,72,67,63,100,84,67,29.92,29.74,29.57,10,8,1,31,13,60,1.97,8,Rain-Thunderstorm,175
2013-4-12,75,64,51,61,49,42,100,67,31,29.95,29.85,29.73,10,10,10,15,10,22,0.00,5,,329
2013-4-13,82,64,46,54,46,39,90,57,22,30.02,29.95,29.89,10,10,10,10,4,,0.00,2,,58
2013-4-14,64,60,57,61,57,53,100,84,75,29.97,29.85,29.66,10,8,1,21,7,33,1.03,7,Rain-Thunderstorm,67
2013-4-15,81,71,62,67,63,58,90,79,62,30.03,29.94,29.83,10,10,7,8,5,,0.00,7,,128
2013-4-16,87,74,63,65,63,60,90,71,46,30.10,30.06,30.01,10,9,5,13,6,20,0.00,2,,135
2013-4-17,82,74,66,66,63,60,90,73,51,30.12,30.06,29.99,10,8,3,13,5,,0.00,4,,130
2013-4-18,81,72,64,69,65,60,90,78,61,29.98,29.92,29.85,10,9,6,20,9,24,0.00,6,Rain,140
2013-4-19,75,62,46,70,54,44,90,82,72,30.13,29.95,29.80,10,8,5,23,14,33,0.11,8,Rain,298
2013-4-20,68,54,43,44,38,34,86,58,32,30.22,30.15,30.09,10,10,10,15,6,22,0.00,0,,15
2013-4-21,75,60,46,45,41,37,74,51,29,30.18,30.14,30.08,10,10,10,13,6,17,0.00,0,Rain,50
2013-4-22,73,66,59,57,52,41,80,63,48,30.13,30.08,30.05,10,10,10,10,6,,0.00,6,,68
2013-4-23,77,66,55,58,56,53,90,74,53,30.11,30.06,30.02,10,8,2,14,6,20,0.00,4,,139
2013-4-24,79,66,55,66,60,53,94,82,56,30.14,30.07,30.01,10,4,0,15,3,,0.01,6,Fog-Rain,171
2013-4-25,79,68,57,61,54,38,94,71,40,30.28,30.18,30.10,10,7,0,12,5,16,0.00,5,Fog,350
2013-4-26,82,67,52,53,44,36,83,45,28,30.27,30.22,30.19,10,10,9,12,5,18,0.00,3,,76
2013-4-27,81,67,53,66,60,49,90,74,54,30.19,30.12,30.04,10,9,5,15,6,20,0.00,3,,160
2013-4-28,82,72,64,68,63,58,94,79,45,30.12,30.03,29.93,10,6,0,13,4,22,0.00,6,Fog-Rain,155
2013-4-29,87,72,62,66,61,57,100,79,44,29.97,29.92,29.87,10,8,1,13,4,18,1.21,5,Rain-Thunderstorm,105
2013-4-30,82,70,59,68,62,59,100,87,50,29.98,29.93,29.87,10,4,0,12,2,,0.05,5,Fog-Rain,112